Orbital Elements at Epoch 2459200.5 (2020-Dec-17.0) TDB
Reference: JPL 34 (heliocentric ecliptic J2000)
Element | Value | Uncertainty (1-sigma) | Units |
e | .2721948667196115 | 6.3103e-08 | |
a | 1.322699534148405 | 9.7667e-09 | au |
q | .9626675107407875 | 7.8107e-08 | au |
i | 11.55174791855375 | 1.0239e-05 | deg |
node | 132.8481767642501 | 8.3816e-06 | deg |
peri | 50.20752811581906 | 3.5903e-05 | deg |
M | 231.960573139565 | 6.9263e-05 | deg |
tp | 2459398.120251854948 (2021-Jul-02.62025185) | 0.00010908 | TDB |
period | 555.635810095657 1.52 | 6.1542e-06 1.685e-08 | d yr |
n | .6479064046250425 | 7.1762e-09 | deg/d |
Q | 1.682731557556022 | 1.2425e-08 | au |
|
| | Orbit Determination Parameters
Additional Information
|